Flag for Denmark Weather past 2 weeks in Roskilde, Denmark

Now
55 °F

Broken clouds.


Feels Like: 54 °F
Forecast: 51 / 63 °F
Wind: 7 mph from South

Location: Koebenhavn / Roskilde

Current Time: Aug 22, 2014 at 9:47:13 PM

Latest Report: Aug 22, 2014 at 9:20 PM


Visibility: N/A

Pressure: 29.74 "Hg

Humidity: 88%

Dew point: 52 °F

Location of RoskildeLocation

Historic Weather in Roskilde — Graph

°F

Roskilde temperature yesterday

Maximum temperature yesterday: 63 °F (at 11:50 AM)
Minimum temperature yesterday: 48 °F (at 4:20 AM)
Average temperature yesterday: 55 °F

Past Weeks' High & Low Weather Summary

 TemperatureHumidityPressure
High75 °F (Aug 8, 12:20 PM)100% (Aug 8, 3:50 AM)29.98 "Hg (Aug 8, 3:50 AM)
Low48 °F (Aug 21, 4:20 AM)46% (Aug 13, 2:20 PM)29.36 "Hg (Aug 18, 11:20 AM)
Average60 °F77%29.72 "Hg
* Reported Aug 7 8:20 PM — Aug 22 8:20 PM, Roskilde, Weather by CustomWeather, © 2014

Note: Actual official high and low records may vary slightly from our data, if they occured in-between our weather recording intervals... More about our weather records

Advertising

Roskilde weather history for previous 24 hours

 ConditionsComfort  
Time TempWeatherWind HumidityBarometerVisibility
8:20 PM
Aug 22
55 °FBroken clouds.8 mph94%29.74 "HgN/A
7:50 PM57 °FBroken clouds.8 mph82%29.74 "HgN/A
7:20 PM57 °FPartly sunny.8 mph88%29.74 "HgN/A
6:50 PM57 °FScattered clouds.7 mph82%29.74 "HgN/A
6:20 PM55 °FSprinkles. Partly sunny.7 mph94%29.74 "HgN/A
5:50 PM54 °FRain. Partly sunny.15 mph88%29.77 "HgN/A
5:20 PM63 °FBroken clouds.16 mph59%29.74 "HgN/A
4:50 PM63 °FPartly sunny.15 mph64%29.74 "HgN/A
4:20 PM63 °FBroken clouds.17 mph64%29.74 "HgN/A
3:50 PM61 °FPartly sunny.17 mph68%29.77 "HgN/A
3:20 PM63 °FPartly sunny.18 mph64%29.77 "HgN/A
2:50 PM63 °FSprinkles. Partly sunny.16 mph64%29.77 "HgN/A
2:20 PM63 °FBroken clouds.16 mph59%29.77 "HgN/A
1:50 PM63 °FPartly sunny.18 mph59%29.77 "HgN/A
1:20 PM63 °FPartly sunny.17 mph59%29.77 "HgN/A
12:50 PM63 °FPartly sunny.15 mph59%29.77 "HgN/A
12:20 PM63 °FScattered clouds.15 mph59%29.77 "HgN/A
11:50 AM63 °FBroken clouds.16 mph64%29.77 "HgN/A
11:20 AM63 °FScattered clouds.15 mph64%29.77 "HgN/A
10:50 AM61 °FPassing clouds.15 mph63%29.80 "HgN/A
10:20 AM59 °FPassing clouds.13 mph77%29.80 "HgN/A
9:50 AM59 °FScattered clouds.12 mph77%29.80 "HgN/A
9:20 AM57 °FBroken clouds.10 mph82%29.80 "HgN/A
8:50 AM55 °FPartly sunny.10 mph88%29.80 "HgN/A
8:20 AM55 °FScattered clouds.9 mph82%29.80 "HgN/A
7:50 AM54 °FPassing clouds.10 mph88%29.80 "HgN/A
7:20 AM54 °FPassing clouds.9 mph88%29.80 "HgN/A
6:50 AM52 °FCool.8 mph94%29.83 "HgN/A
6:20 AM52 °FPassing clouds.8 mph94%29.83 "HgN/A
5:50 AM52 °FPassing clouds.8 mph88%29.83 "HgN/A
5:20 AM52 °FPassing clouds.7 mph94%29.83 "HgN/A
4:20 AM52 °FPassing clouds.7 mph94%29.83 "HgN/A
3:50 AM52 °FPartly cloudy.8 mph94%29.86 "HgN/A
3:20 AM52 °FPassing clouds.8 mph94%29.86 "HgN/A
2:50 AM52 °FPartly cloudy.7 mph94%29.86 "HgN/A
2:20 AM52 °FPassing clouds.7 mph94%29.86 "HgN/A
1:50 AM52 °FPartly cloudy.7 mph94%29.86 "HgN/A
1:20 AM52 °FPartly cloudy.7 mph94%29.89 "HgN/A
12:50 AM52 °FPartly cloudy.8 mph94%29.89 "HgN/A
12:20 AM54 °FPassing clouds.8 mph88%29.89 "HgN/A
11:50 PM
Aug 21
54 °FPassing clouds.9 mph82%29.89 "HgN/A
11:20 PM54 °FPartly cloudy.7 mph82%29.89 "HgN/A
10:50 PM52 °FPassing clouds.6 mph88%29.89 "HgN/A
10:20 PM52 °FPartly cloudy.7 mph88%29.89 "HgN/A
9:50 PM52 °FPartly cloudy.6 mph88%29.89 "HgN/A
9:20 PM52 °FBroken clouds.7 mph88%29.89 "HgN/A
Weather by CustomWeather, © 2014

See weather overviewHow to use our weather pages